TimeEDT,TemperatureF,Dew PointF,Humidity,Sea Level PressureIn,VisibilityMPH,Wind Direction,Wind SpeedMPH,Gust SpeedMPH,PrecipitationIn,Events,Conditions,WindDirDegrees,DateUTC
12:52 AM,73.0,68.0,84,29.99,8.0,Calm,Calm,-,N/A,,Clear,0,2013-09-12 04:52:00
1:52 AM,71.1,66.9,87,29.97,6.0,South,5.8,-,N/A,,Clear,180,2013-09-12 05:52:00
2:48 AM,69.8,66.2,88,29.97,5.0,South,4.6,-,N/A,,Partly Cloudy,180,2013-09-12 06:48:00
2:52 AM,70.0,66.9,90,29.96,5.0,South,5.8,-,N/A,,Partly Cloudy,180,2013-09-12 06:52:00
3:08 AM,69.8,66.2,88,29.96,4.0,South,4.6,-,N/A,,Mostly Cloudy,180,2013-09-12 07:08:00
3:52 AM,70.0,66.9,90,29.96,4.0,South,4.6,-,N/A,,Mostly Cloudy,170,2013-09-12 07:52:00
4:01 AM,69.8,66.2,88,29.96,4.0,South,6.9,-,N/A,,Scattered Clouds,190,2013-09-12 08:01:00
4:38 AM,69.8,66.2,88,29.96,4.0,SSW,5.8,-,N/A,,Mostly Cloudy,200,2013-09-12 08:38:00
4:52 AM,70.0,66.9,90,29.95,4.0,South,4.6,-,N/A,,Overcast,190,2013-09-12 08:52:00
5:52 AM,71.1,68.0,90,29.95,5.0,SW,6.9,-,N/A,,Overcast,220,2013-09-12 09:52:00
6:52 AM,71.1,68.0,90,29.95,3.0,SSW,9.2,-,N/A,,Overcast,210,2013-09-12 10:52:00
7:52 AM,73.0,69.1,87,29.95,4.0,SW,9.2,-,N/A,,Overcast,220,2013-09-12 11:52:00
8:22 AM,73.4,69.8,88,29.94,6.0,SW,10.4,-,N/A,,Haze,220,2013-09-12 12:22:00
8:52 AM,75.9,69.1,79,29.93,8.0,SSW,8.1,16.1,N/A,,Clear,200,2013-09-12 12:52:00
9:52 AM,78.1,69.1,74,29.92,9.0,SSW,11.5,17.3,N/A,,Partly Cloudy,210,2013-09-12 13:52:00
10:52 AM,80.1,69.1,69,29.90,10.0,SSW,12.7,21.9,N/A,,Clear,200,2013-09-12 14:52:00
11:52 AM,81.0,70.0,69,29.89,10.0,SW,15.0,23.0,N/A,,Clear,220,2013-09-12 15:52:00
12:52 PM,79.0,69.1,72,29.87,10.0,SSW,12.7,21.9,N/A,,Clear,210,2013-09-12 16:52:00
1:52 PM,81.0,70.0,69,29.84,10.0,SSW,12.7,17.3,N/A,,Clear,200,2013-09-12 17:52:00
2:52 PM,77.0,68.0,74,29.82,9.0,SW,15.0,23.0,N/A,,Clear,220,2013-09-12 18:52:00
3:52 PM,78.1,68.0,71,29.81,10.0,SSW,13.8,21.9,N/A,,Partly Cloudy,200,2013-09-12 19:52:00
4:24 PM,78.8,69.8,74,29.80,10.0,SW,13.8,24.2,N/A,,Mostly Cloudy,220,2013-09-12 20:24:00
4:44 PM,75.2,68.0,78,29.79,9.0,SW,19.6,25.3,N/A,,Scattered Clouds,220,2013-09-12 20:44:00
4:52 PM,75.9,68.0,76,29.78,9.0,SW,12.7,25.3,N/A,,Scattered Clouds,220,2013-09-12 20:52:00
5:19 PM,75.2,68.0,78,29.78,9.0,SW,16.1,25.3,N/A,,Mostly Cloudy,220,2013-09-12 21:19:00
5:52 PM,73.9,68.0,82,29.78,9.0,SSW,11.5,20.7,N/A,,Mostly Cloudy,210,2013-09-12 21:52:00
6:52 PM,73.0,68.0,84,29.76,9.0,SSW,13.8,20.7,N/A,,Mostly Cloudy,210,2013-09-12 22:52:00
7:52 PM,73.0,66.9,81,29.76,10.0,SW,17.3,20.7,N/A,,Overcast,220,2013-09-12 23:52:00
8:52 PM,73.0,66.9,81,29.75,10.0,SW,11.5,20.7,N/A,,Overcast,220,2013-09-13 00:52:00
9:52 PM,72.0,66.9,84,29.74,10.0,SSW,11.5,19.6,N/A,,Overcast,200,2013-09-13 01:52:00
10:52 PM,72.0,66.0,81,29.73,10.0,SSW,10.4,18.4,N/A,,Mostly Cloudy,200,2013-09-13 02:52:00
11:29 PM,71.6,66.2,83,29.72,5.0,SW,11.5,-,0.02,Rain,Rain,220,2013-09-13 03:29:00
11:44 PM,71.6,66.2,83,29.72,9.0,SW,10.4,-,0.04,Rain,Light Rain,220,2013-09-13 03:44:00
11:52 PM,71.1,66.9,87,29.71,10.0,SW,10.4,-,0.04,,Overcast,220,2013-09-13 03:52:00